Location: Garfield Cemetery
(38.1748°N, 100.3827°W)
Time: 00:02:56
(UTC+00:00)

Daily predictions for brighter satellites

Satellite Brightness Start Highest point End
(mag) Time Altitude Azimuth Time Altitude Azimuth Time Altitude Azimuth
CSL-04 Debris 4.3 01:37:22 10° SSE 01:42:46 62° ENE 01:48:10 10° N
NOSS 3-2 (C) 4.4 01:37:12 10° NNW 01:44:41 52° NE 01:53:01 10° SE
Cosmos 220 Rocket 4.2 01:41:35 10° NNW 01:46:01 79° WSW 01:50:21 10° SSE
Cosmos 2333 Rocket 4.1 01:44:08 10° NNE 01:47:15 15° NE 01:50:21 10° E
Lacrosse 4 Rocket 2.6 01:43:18 10° NW 01:47:24 44° WSW 01:51:22 10° S
H-2A R/B 2.9 01:43:33 10° S 01:48:31 52° W 01:53:23 10° NNW
ATLAS 2AS CENTAUR R/B 3.4 01:41:44 10° S 01:48:59 42° ESE 01:56:15 10° NE
Cosmos 2322 Rocket 2.4 01:45:52 10° NNW 01:51:29 55° ENE 01:57:03 10° SE
Cosmos 1300 2.7 01:47:45 10° S 01:51:30 62° E 01:55:16 10° NNE
Cosmos 1703 3.9 01:48:29 10° NNW 01:52:18 58° W 01:56:06 10° S
Cosmos 1110 Rocket 4.1 01:47:58 10° N 01:53:05 59° ENE 01:58:09 10° SSE
Meteor 1-11 4.3 01:50:08 10° N 01:55:54 66° E 02:01:34 10° SSE
Meteor 2-10 Rocket 4.4 01:52:00 10° SSE 01:56:20 28° E 02:00:49 10° NNE
Cosmos 1328 3.9 01:54:33 10° N 01:58:35 80° W 02:02:32 10° S
Cosmos 1331 Rocket 4.1 01:54:35 10° N 01:59:44 61° ENE 02:04:53 10° SSE
Cosmos 1072 Rocket 4.5 01:57:01 10° S 02:03:12 85° E 02:09:21 10° N
Cosmos 2228 3.2 01:59:00 10° SSE 02:03:12 50° E 02:07:24 10° NNE
Cosmos 2058 Rocket 4.4 02:01:55 10° SE 02:05:05 20° E 02:08:15 10° NE
SME Rocket 3.2 02:01:37 10° NNE 02:05:30 88° E 02:10:31 10° SSW
Lacrosse 5 rocket 3.6 02:04:19 10° W 02:07:39 25° NW 02:11:10 10° NNE
Cosmos 405 4.3 02:07:54 14° SE 02:09:45 20° E 02:12:20 10° NE
BREEZE-M DEB (TANK) 4.2 02:08:56 10° NW 02:12:01 57° NE 02:18:09 15° ESE
Resurs 01 Rocket 3.5 02:10:29 12° E 02:12:11 15° ENE 02:14:40 10° NNE
CZ-4 R/B 3.8 02:10:57 10° SSW 02:14:27 25° W 02:17:58 10° NW
Cosmos 1953 Rocket 4.3 02:14:35 10° NNE 02:18:32 33° ENE 02:21:11 17° SE
Cosmos 1408 3.9 02:16:28 10° NNE 02:19:11 20° ENE 02:19:57 19° E
SJ-6B 2.9 02:16:36 13° SSE 02:19:47 49° ENE 02:23:24 10° N
BREEZE-M DEB (TANK) 4.1 02:16:41 10° WSW 02:20:02 48° NNW 02:29:36 10° NE
Helios 1A Rocket 3.4 02:18:17 10° S 02:22:17 60° WSW 02:26:20 10° NNW
USA 238 DEB 4.0 02:15:39 10° NW 02:23:01 81° WSW 02:30:38 10° SSE
USA 238 4.0 02:15:45 10° NW 02:23:07 82° WSW 02:30:44 10° SSE
SL-27 R/B 3.9 02:20:00 10° SW 02:23:21 40° WNW 02:26:40 10° N
MetOp-A 4.1 02:21:08 10° SSE 02:26:30 87° ENE 02:31:52 10° NNW
Cosmos 1455 3.1 02:25:41 22° SE 02:27:00 28° E 02:30:15 10° NNE
COSMOS 2428 4.2 02:23:14 10° N 02:27:31 21° NE 02:30:01 16° E
CSL-04 Rocket 4.3 02:22:23 10° S 02:27:35 55° W 02:32:46 10° NNW
Cosmos 1184 Rocket 3.5 02:25:19 10° NNW 02:28:26 52° W 02:31:34 10° S
Resurs 1-3 4.2 02:27:37 21° SE 02:29:57 37° ENE 02:34:00 10° N
Cosmos 1833 4.3 02:26:11 10° SSW 02:31:48 82° WNW 02:37:28 10° NNE
Cosmos 2360 Rocket 2.2 02:28:46 10° NNW 02:34:26 71° ENE 02:38:33 19° SSE
Cosmos 1092 Rocket 4.2 02:30:53 10° N 02:36:56 49° E 02:41:08 19° SE
CENTAUR R/B 3.4 02:28:38 10° NW 02:37:02 78° WSW 02:45:21 12° SSE
Cosmos 1825 Rocket 3.5 02:33:07 10° N 02:37:31 88° E 02:41:39 12° S
USA 215 4.3 02:34:12 15° E 02:38:50 34° NNE 02:44:34 10° NNW
IRS-1A Rocket 4.3 02:35:17 16° SSE 02:39:42 65° ENE 02:45:16 10° N
MOS 1 4.3 02:35:21 16° SSE 02:39:52 64° ENE 02:45:27 10° N
OBJECT-B 0.7 02:38:27 22° S 02:40:25 85° W 02:43:40 10° NNW
SPOT 3 Rocket 4.4 02:38:30 24° ESE 02:40:25 31° ENE 02:44:56 10° N
ATLAS 3B R/B 4.0 02:34:36 10° NNW 02:40:26 27° NE 02:44:17 18° E
Cosmos 2251 Rocket 4.2 02:37:28 17° SSE 02:40:52 33° E 02:45:35 10° NE
Atlas Centaur 2 3.8 02:34:46 10° W 02:42:21 39° SSW 02:47:21 21° SE
Cosmos 1758 Rocket 4.4 02:40:31 10° NNW 02:44:49 51° W 02:49:09 10° SSW
BREEZE-M DEB (TANK) 4.4 02:41:33 10° W 02:45:00 41° N 02:55:01 10° ENE
SL-16 R/B 3.5 02:42:19 10° NW 02:47:30 37° WSW 02:52:38 10° S
RESURS DK-1 2.8 02:47:50 37° ESE 02:47:59 37° ESE 02:51:49 10° NE
Cosmos 2098 Rocket 4.3 02:41:16 10° N 02:48:16 66° E 02:54:15 17° SSE
Cosmos 2058 3.8 02:44:37 10° NNE 02:48:19 29° ENE 02:48:28 29° E
Cosmos 2237 4.4 02:44:02 10° NNW 02:49:43 70° WSW 02:54:13 16° S
Cosmos 2219 Rocket 2.9 02:47:44 10° N 02:53:02 38° ENE 02:54:51 30° E
Cosmos 909 Rocket 4.1 02:48:00 10° S 02:54:19 50° ESE 03:00:20 10° NE
USA 186 3.9 02:54:38 10° SSW 02:57:28 26° W 03:00:16 10° NW
Ariane Rocket 3.0 03:00:03 22° S 03:03:21 79° WSW 03:08:26 10° NNW
Cosmos 1892 2.9 03:01:27 10° NNW 03:05:11 66° W 03:06:34 36° SSW
ARIANE 5 R/B 4.4 03:07:48 19° NE 03:07:48 19° NE 03:10:13 10° NNE
Cosmos 1302 Rocket 4.4 03:03:53 10° NNW 03:09:07 61° WSW 03:12:12 24° S
IGS 5A 3.8 03:09:58 47° ENE 03:09:58 47° ENE 03:13:51 10° N
Cosmos 2279 Rocket 4.1 03:07:56 36° SE 03:10:01 50° E 03:15:58 10° NNE
Cosmos 1428 Rocket 4.4 03:05:37 10° N 03:11:51 73° E 03:14:45 34° SSE
COSMOS 2487 3.7 03:11:08 10° SW 03:14:21 39° WNW 03:17:35 10° N
Cosmos 2237 Rocket 3.8 03:11:28 10° N 03:15:21 19° NE 03:15:50 18° ENE
Cosmos 44 3.2 03:12:04 10° SSW 03:17:01 76° ESE 03:22:19 10° NNE
IRIDIUM 104 4.3 03:23:26 56° E 03:23:36 56° E 03:28:42 10° NNE
Cosmos 2026 Rocket 3.8 03:17:49 10° N 03:23:56 89° WSW 03:26:32 37° S
Cosmos 1825 2.4 03:21:50 10° N 03:25:04 64° N 03:25:04 64° N
Cosmos 1818 3.4 03:21:33 10° SSW 03:26:58 82° ESE 03:32:26 10° NNE
Cosmos 2227 Rocket 4.4 03:31:35 10° NE 03:31:35 10° NE 03:31:42 10° NE
Cosmos 1627 Rocket 4.5 03:22:14 10° N 03:28:22 79° W 03:31:15 34° S
Cosmos 1634 Rocket 4.3 03:25:00 10° SSW 03:31:15 67° W 03:37:30 10° N
Cosmos 2333 Rocket 2.1 03:26:30 10° NNW 03:32:17 86° WSW 03:33:30 58° SSE
Terra 3.9 03:33:53 15° NE 03:33:53 15° NE 03:35:31 10° NNE
IRIDIUM 114 4.2 03:32:33 69° ESE 03:32:43 69° E 03:37:54 10° N
Cosmos 2142 Rocket 4.4 03:29:58 32° S 03:33:08 87° E 03:39:32 10° N
Cosmos 1992 Rocket 3.8 03:29:37 10° NNW 03:34:52 90° WSW 03:35:23 73° SSE
Meteor 2-1 Rocket 4.4 03:30:54 20° SSW 03:35:00 73° W 03:40:54 10° N
Cosmos 2297 Rocket 3.9 03:38:29 19° NE 03:38:29 19° NE 03:40:15 10° NE
ATLAS 2AS CENTAUR R/B 4.0 03:32:25 10° WSW 03:39:56 46° NW 03:47:25 10° NNE
Cosmos 614 Rocket 3.8 03:40:26 84° E 03:40:26 84° E 03:45:31 10° NNE
MetOp-B 3.9 03:40:46 76° SE 03:41:12 85° ENE 03:46:35 10° NNW
IRIDIUM 103 4.1 03:41:41 83° SE 03:41:51 85° E 03:47:05 10° N
Cosmos 2344 3.9 03:37:02 10° SW 03:44:34 63° NW 03:52:13 10° NNE
Cosmos 2322 3.9 03:40:20 10° NNW 03:45:55 62° WSW 03:46:54 53° SSW
Resurs 01 Rocket 2.3 03:48:03 48° WSW 03:48:13 49° W 03:52:33 10° NNW
BREEZE M DEB (TANK) 4.3 03:40:18 10° WSW 03:49:14 39° NW 03:51:05 24° NNE
Cosmos 2180 Rocket 4.3 03:50:24 70° SSE 03:51:11 84° E 03:57:21 10° N
ERS-1 Rocket 4.1 03:55:11 34° NNE 03:55:11 34° NNE 03:58:30 10° N
Cosmos 2292 Rocket 4.2 03:47:21 10° N 03:54:27 87° E 03:54:46 81° SSE
Cosmos 1655 Rocket 4.1 03:48:26 10° N 03:54:15 56° ENE 03:54:15 56° ENE
CZ-2C R/B 4.5 03:54:15 10° N 03:58:31 47° WNW 03:58:40 47° W
BREEZE-M (TANK) 3.6 03:46:47 10° WNW 04:01:48 75° NNE 04:02:06 72° ENE
Meteor 2-3 Rocket 4.5 03:56:33 10° N 04:00:53 41° NE 04:00:53 41° NE
SL-16 R/B 4.1 04:03:34 10° NNE 04:06:31 17° NE 04:06:31 17° NE
Cosmos 1980 4.3 04:04:47 10° NNW 04:09:15 46° NNE 04:09:15 46° NNE
COSMOS 2428 3.1 04:06:33 10° NNW 04:12:03 56° WSW 04:12:03 56° WSW
Spot 2 Rocket 4.1 04:14:36 55° NNW 04:14:36 55° NNW 04:18:34 10° NNW
SPOT 1/Viking Rocket 4.0 04:14:36 57° WNW 04:14:36 57° WNW 04:19:11 10° NNW
Exosat Rocket 4.3 04:10:12 10° NNW 04:15:59 51° W 04:15:59 51° W
USA 215 3.2 04:21:32 78° WSW 04:21:32 78° WSW 04:27:59 10° NW
ATLAS 3B R/B 2.8 04:24:38 10° NW 04:31:33 71° WSW 04:31:33 71° WSW
Cosmos 2219 Rocket 3.7 04:32:01 10° NW 04:36:36 28° W 04:36:36 28° W
ATLAS 3B CENTAUR R/B 4.3 04:33:01 10° WSW 04:51:18 54° S 04:51:18 54° S
Cosmos 2237 Rocket 3.5 04:54:18 10° NNW 04:57:40 36° NW 04:57:40 36° NW
Terra 4.1 05:12:46 21° NNW 05:12:46 21° NNW 05:14:26 10° NNW
Cosmos 2227 Rocket 3.8 05:13:20 30° N 05:13:20 30° N 05:16:30 10° N
Cosmos 2297 Rocket 3.9 05:20:11 29° NW 05:20:11 29° NW 05:24:09 10° N
SL-16 R/B 4.2 05:46:18 10° NNW 05:48:24 23° NNW 05:48:24 23° NNW
Cosmos 2263 Rocket 4.5 07:01:31 19° N 07:01:31 19° N 07:03:17 10° N
SL-16 R/B 4.2 07:29:03 28° NE 07:29:03 28° NE 07:33:29 10° N
CZ-2D R/B 3.8 08:04:34 10° NNE 08:07:25 31° NNE 08:07:25 31° NNE
Resurs 1-4 Rocket 3.9 08:06:03 10° NNE 08:08:31 28° NNE 08:08:31 28° NNE
USA 234 3.7 08:13:56 10° NE 08:19:03 58° NE 08:19:03 58° NE
SJ 16-02 3.3 08:53:53 26° NNE 08:53:53 26° NNE 08:55:53 10° NNE
ADEOS II 2.9 08:48:15 10° NNE 08:52:00 47° NNE 08:52:00 47° NNE
Gbstr 26 Del rocket 4.2 09:01:55 56° N 09:01:55 56° N 09:06:18 10° NE
Cosmos 2082 Rocket 4.0 09:02:25 10° N 09:07:13 28° ENE 09:12:00 10° ESE
SL-16 R/B 3.7 09:14:07 30° NW 09:14:07 30° NW 09:17:33 10° NNW
NOSS 3-3 (A) 3.8 09:14:43 77° N 09:14:43 77° N 09:20:41 10° NNE
NOSS 3-3 (C) 3.8 09:14:49 78° N 09:14:49 78° N 09:20:47 10° NNE
Cosmos 1833 Rocket 2.7 09:18:10 10° NNW 09:23:50 75° ENE 09:24:49 60° SE
IDEFIX/ARIANE 42P 2.6 09:19:58 10° NNE 09:25:09 72° E 09:25:09 72° E
Cosmos 2278 Rocket 2.4 09:28:30 58° NW 09:28:30 58° NW 09:33:41 10° NNE
Cosmos 990 Rocket 4.0 09:29:00 74° E 09:29:00 74° E 09:34:05 10° NNE
ARIANE 5 R/B 3.1 09:26:50 10° NNE 09:31:58 54° E 09:33:00 46° SE
Cosmos 1898 Rocket 3.6 09:33:10 64° SE 09:33:32 66° ESE 09:38:44 10° NNE
Cosmos 1937 Rocket 4.2 09:33:43 41° SE 09:34:41 46° ESE 09:39:36 10° NNE
COSMOS 2406 3.0 09:33:06 10° NNW 09:38:47 79° WSW 09:39:07 76° SSW
SL-08 R/B 4.3 09:33:40 10° NNW 09:39:42 64° W 09:39:55 64° WSW
MSX 3.9 09:35:37 10° NNE 09:41:23 74° ESE 09:42:59 49° S
X-37B 3.0 09:45:05 21° E 09:45:05 21° E 09:46:23 10° ENE
Cosmos 1908 Rocket 4.5 09:40:21 10° NNW 09:43:16 40° NNW 09:43:16 40° NNW
CBERS-1 4.4 09:41:40 10° N 09:46:07 46° NW 09:46:07 46° NW
Cosmos 1821 Rocket 3.9 09:42:00 10° N 09:48:19 76° W 09:50:27 44° SSW
IRS-1D 4.3 09:44:27 10° N 09:48:37 36° NW 09:48:37 36° NW
CZ-2D R/B 4.1 09:46:16 10° NNW 09:48:45 16° NW 09:48:45 16° NW
Cosmos 158 Rocket 4.1 09:45:07 10° NNW 09:49:03 53° NW 09:49:03 53° NW
Resurs 1-4 Rocket 4.2 09:47:49 10° NNW 09:49:36 14° NW 09:49:36 14° NW
Cosmos 1943 Rocket 3.5 09:47:27 19° SSE 09:50:46 35° ESE 09:55:51 10° NE
Meteor 1-13 Rocket 4.3 09:51:33 40° S 09:53:48 79° E 09:59:34 10° NNE
DELTA 2 R/B (1) 3.4 09:53:08 64° WSW 09:54:01 85° SSE 09:59:37 10° ENE
Cosmos 2297 4.2 09:54:34 32° S 09:57:03 58° ESE 10:02:40 10° NNE
Cosmos 2369 Rocket 4.4 09:53:51 10° SE 09:57:49 20° E 10:01:48 10° NE
Centaur D-1AR AC-39 4.4 09:57:18 10° SSE 09:59:01 12° SE 10:01:43 10° ESE
IRS-P3 4.1 09:54:04 10° N 09:59:21 65° WNW 10:00:18 55° WSW
Nadezhda 3 Rocket 4.2 09:59:20 46° WSW 10:00:33 53° W 10:06:46 10° N
COSMOS 2441 4.2 09:57:58 10° N 10:02:50 82° WNW 10:03:57 54° SSW
SL-08 R/B 3.3 09:59:46 23° SSE 10:02:54 85° ENE 10:07:48 10° NNW
FALCON 9 DEB 3.7 10:04:57 53° N 10:05:21 58° NE 10:08:44 10° ESE
ADEOS Rocket 3.2 10:04:52 40° SW 10:06:37 52° W 10:13:10 10° NNW
OE (NEXTSAT) 4.4 10:12:04 68° ESE 10:12:04 68° ESE 10:15:19 10° ENE
ATLAS 5 CENTAUR R/B 2.4 10:06:22 10° NW 10:12:18 83° WSW 10:19:11 10° SSE
Cosmos 1782 Rocket 3.5 10:08:27 10° NNW 10:12:52 61° W 10:13:30 54° SW
CZ-2C R/B 2.8 10:14:13 10° NNE 10:18:54 59° E 10:22:58 14° S
Cosmos 1378 3.5 10:22:39 43° WNW 10:22:39 43° WNW 10:25:55 10° N
Cosmos 1300 Rocket 3.8 10:21:11 10° N 10:25:39 73° E 10:30:03 10° SSE
Cosmos 1680 Rocket 3.6 10:23:40 10° NNW 10:28:50 54° WSW 10:33:59 10° S
Cosmos 2084 3.3 10:30:46 40° SW 10:32:09 73° NW 10:36:23 10° NNE
ADEOS II 4.0 10:30:09 10° NW 10:32:31 13° WNW 10:32:56 13° WNW
Cosmos 1934 Rocket 4.1 10:30:10 10° NNW 10:36:19 56° W 10:42:20 10° SSW
IRAS Rocket 4.2 10:34:37 10° SSE 10:40:06 90° SE 10:45:39 10° NNW
Sich 1 Rocket 3.6 10:37:54 10° NNW 10:42:24 60° W 10:46:54 10° S
Meteor 1-15 Rocket 4.1 10:39:41 10° NNW 10:45:16 79° W 10:50:51 10° S
FENGYUN 3A 4.0 10:39:58 10° NNE 10:45:20 65° ESE 10:50:39 10° S
Cosmos 1356 Rocket 3.4 10:44:58 10° NNW 10:49:01 59° W 10:53:06 10° S
Milstar 3 4.0 10:43:43 21° WSW 10:49:06 48° S 11:01:58 10° ESE
Cosmos 1605 Rocket 3.9 10:44:50 10° NNW 10:50:54 68° W 10:56:59 10° S
Cosmos 2082 Rocket 2.6 10:46:12 10° NW 10:51:21 38° WSW 10:56:29 10° S
CZ-4C R/B 3.0 10:44:57 10° NW 10:52:33 73° WSW 11:01:05 10° SSE
CZ-2C R/B 3.0 10:51:03 10° N 10:54:39 46° WNW 10:57:04 19° SW
ASTRO E2 4.4 10:54:11 15° SSW 10:56:05 21° SSE 10:59:05 10° ESE
Cosmos 1484 Rocket 3.3 10:56:41 10° NNE 11:00:38 62° E 11:04:35 10° S
NOSS 3-4 (A) 4.0 10:53:25 10° NNW 11:00:39 87° ENE 11:08:41 10° SSE
NOSS 3-4 (C) 4.0 10:53:32 10° NNW 11:00:45 86° ENE 11:08:45 10° SSE
IDEFIX/ARIANE 42P 4.4 11:01:35 10° NNW 11:04:07 14° WNW 11:05:58 12° W
Cosmos 1833 Rocket 4.4 11:04:32 10° WNW 11:06:22 13° W 11:06:22 13° W
BREEZE-M DEB (TANK) 4.4 11:02:44 10° SSW 11:07:30 61° SE 11:24:44 10° NE
Cosmos 1766 3.4 11:04:58 10° NNW 11:08:53 55° W 11:12:46 10° S
BREEZE-M DEB (TANK) 2.4 11:06:25 10° WNW 11:09:04 33° SW 11:11:06 10° SSE
Cosmos 1378 Rocket 3.5 11:04:51 10° S 11:09:16 76° W 11:13:42 10° N
ARIANE 5 R/B 4.1 11:07:05 10° NNW 11:10:35 18° WNW 11:13:19 13° W
Cosmos 2298 Rocket 4.0 11:09:29 10° SSW 11:14:48 82° WNW 11:20:08 10° NNE
ATLAS 2AS CENTAUR R/B 3.2 11:07:57 10° NNW 11:15:12 67° NE 11:21:51 10° SE
X-37B 1.6 11:17:21 12° W 11:20:03 37° NNW 11:23:02 10° NE
Cosmos 1674 Rocket 3.8 11:16:01 10° SSW 11:20:10 45° W 11:24:22 10° N
SL-4 R/B 3.1 11:15:32 10° NW 11:20:17 55° NE 11:24:51 10° ESE
Cosmos 2173 Rocket 4.2 11:17:06 10° N 11:23:12 77° E 11:29:18 10° S
Cosmos 1727 Rocket 4.2 11:17:56 10° SSW 11:23:55 51° W 11:30:00 10° N
GP-B 3.2 11:19:41 10° N 11:24:03 59° W 11:28:23 10° SSW
ALOS 2.5 11:20:14 10° N 11:24:47 52° WNW 11:29:17 10° SSW
METEOR-M 4.1 11:20:43 10° N 11:26:04 76° WNW 11:31:23 10° SSW
Meteor 2-20 Rocket 4.5 11:20:03 10° SSW 11:26:08 68° W 11:32:16 10° N
SJ-6F 4.4 11:22:12 10° N 11:26:19 67° WNW 11:30:22 10° SSW
Cosmos 1726 2.9 11:23:22 10° N 11:27:03 57° E 11:30:42 10° SSE
Landsat 5 3.6 11:24:37 10° S 11:29:01 75° WSW 11:33:32 10° NNW
MOS 1 Rocket 4.1 11:24:22 10° SSE 11:29:41 70° ENE 11:35:07 10° N
Okean 2 3.5 11:25:46 10° SSW 11:29:48 57° W 11:33:54 10° N
Cosmos 1400 Rocket 3.0 11:29:58 10° N 11:34:05 84° E 11:38:13 10° S
Cosmos 1943 Rocket 3.1 11:29:30 10° WSW 11:34:29 31° WNW 11:39:30 10° N
Cosmos 1470 2.7 11:33:35 10° N 11:37:26 80° W 11:41:18 10° S
FALCON 9 DEB 3.7 11:35:20 10° NW 11:38:22 52° NE 11:41:25 10° ESE
DELTA 2 R/B (1) 3.8 11:35:01 10° W 11:40:36 77° N 11:46:13 10° E
Cosmos 2369 Rocket 2.5 11:35:59 10° SW 11:41:22 50° WNW 11:46:50 10° NNE
Cosmos 1459 Rocket 4.1 11:35:58 10° N 11:42:20 77° W 11:48:38 10° S
